Simultaneous Nadir Overpasses (SNOs) Predictions

Prediction of SNOs between AQUA and METOP-A Satellite Orbit:

Table of predicted SNOs for the next 14.0 days since TLE Epoch: 2/29/2020
Index Date (AQUA) Time (AQUA) Lat,Lon (AQUA) SZA (AQUA ) Date (METOP-A) Time (METOP-A) Lat,Lon (METOP-A) SZA (METOP-A ) Distance(km) Time Diff (sec)
1 03/01/2020 05:19:57 -75.94, -91.07 96.32 03/01/2020 05:19:37 -75.93, -91.17 96.31 2.80 20
2 03/01/2020 06:09:25 76.00, 76.38 83.74 03/01/2020 06:10:16 75.98, 76.34 83.72 1.82 51
3 03/04/2020 00:04:36 75.38, 169.35 81.98 03/04/2020 00:03:32 75.30, 165.92 82.13 97.16 64
4 03/04/2020 00:54:14 -75.95, -24.69 97.38 03/04/2020 00:54:00 -75.94, -24.79 97.39 3.40 14
5 03/04/2020 01:43:42 76.01, 142.76 82.68 03/04/2020 01:44:39 75.99, 142.71 82.64 3.20 57
6 03/06/2020 19:38:58 75.65,-124.99 81.19 03/06/2020 19:37:49 75.59,-126.86 81.26 52.24 69
7 03/06/2020 20:28:31 -75.98, 41.67 98.45 03/06/2020 20:28:22 -75.99, 41.73 98.44 2.07 9
8 03/06/2020 21:17:59 76.04,-150.88 81.61 03/06/2020 21:19:01 76.04,-150.77 81.59 2.92 62
9 03/09/2020 15:13:19 75.93, -59.38 80.40 03/09/2020 15:12:06 75.83, -59.77 80.34 15.46 73
10 03/09/2020 16:02:47 -76.01, 108.01 99.53 03/09/2020 16:02:44 -76.00, 108.10 99.54 2.92 3
11 03/09/2020 16:52:14 76.02, -84.39 80.48 03/09/2020 16:53:23 76.04, -84.41 80.48 2.29 69
12 03/12/2020 10:47:36 75.97, 6.94 79.33 03/12/2020 10:46:26 75.97, 7.05 79.34 2.85 70
13 03/12/2020 11:37:03 -76.00, 174.48 100.65 03/12/2020 11:37:07 -76.00, 174.47 100.65 0.38 4




NCC Satellite Simultaneous Nadir Overpasses (SNOs) Prediction Service
